GW0870 Weather Reports


time (UTC)temp
C
wind
direction
speed
KPH
gust
KPH
rain 1hr
cm
rain 24hr
cm
rain mn
cm
humidity
%
barometer
mb
20260510001551 20 178 0.0 0.0 0.00 0.00 0.00 77 1010.8
20260510000058 20 162 0.0 0.0 0.00 0.00 0.00 75 1010.7
20260509234602 21 0 0.0 1.6 0.00 0.00 0.00 73 1010.5
20260509233054 21 141 0.0 4.8 0.00 0.00 0.00 72 1010.6
20260509231601 21 246 1.6 9.7 0.00 0.00 0.00 71 1010.6
20260509224551 22 0 1.6 9.7 0.00 0.00 0.00 69 1010.1
20260509223048 22 205 1.6 9.7 0.00 0.00 0.00 68 1010.2
20260509221546 22 301 4.8 16.1 0.00 0.00 0.00 65 1010.0
20260509220050 22 165 4.8 11.3 0.00 0.00 0.00 67 1009.9
20260509214545 22 102 3.2 11.3 0.00 0.00 0.00 67 1009.8
20260509213045 22 232 1.6 12.9 0.00 0.00 0.00 66 1009.9
20260509211552 22 205 3.2 12.9 0.00 0.00 0.00 66 1009.7
20260509210058 22 143 3.2 12.9 0.00 0.00 0.00 66 1009.8
20260509204545 22 204 4.8 17.7 0.00 0.00 0.00 65 1010.0
20260509203046 22 186 3.2 16.1 0.00 0.00 0.00 67 1009.9
20260509201555 22 182 6.4 17.7 0.00 0.00 0.00 66 1009.7
20260509200052 22 199 4.8 16.1 0.00 0.00 0.00 66 1010.1
20260509194547 22 238 3.2 14.5 0.00 0.00 0.00 68 1009.9
20260509193053 22 110 3.2 9.7 0.00 0.00 0.00 69 1010.1
20260509191546 21 208 3.2 11.3 0.00 0.00 0.00 70 1010.4
20260509190104 21 116 3.2 9.7 0.00 0.00 0.00 71 1010.6
20260509184552 21 117 3.2 12.9 0.00 0.00 0.00 72 1010.7
20260509183048 21 164 1.6 8.0 0.00 0.00 0.00 72 1010.6
20260509181545 20 213 3.2 11.3 0.00 0.00 0.00 73 1010.8
20260509180052 20 218 3.2 11.3 0.00 0.00 0.00 74 1011.0
20260509174543 20 155 3.2 8.0 0.00 0.00 0.00 73 1011.2
20260509173056 20 105 3.2 6.4 0.00 0.00 0.00 74 1011.2
20260509171549 20 247 4.8 16.1 0.00 0.00 0.00 73 1011.4
20260509170058 20 225 4.8 12.9 0.00 0.00 0.00 72 1011.6
20260509164549 20 244 3.2 12.9 0.00 0.00 0.00 75 1011.7
20260509163058 20 207 4.8 8.0 0.00 0.00 0.00 75 1012.1
20260509161553 20 220 1.6 11.3 0.00 0.00 0.00 77 1012.3
20260509160051 19 147 1.6 9.7 0.00 0.00 0.00 77 1012.5
20260509154557 18 247 3.2 12.9 0.00 0.00 0.00 80 1012.4
20260509153045 18 161 3.2 6.4 0.00 0.00 0.00 81 1012.2
20260509151542 17 134 1.6 6.4 0.00 0.00 0.00 83 1012.3
20260509150045 17 134 1.6 9.7 0.00 0.00 0.00 83 1012.4
20260509144539 17 115 1.6 9.7 0.00 0.00 0.00 85 1012.4
20260509143054 17 214 0.0 12.9 0.00 0.00 0.00 86 1012.2
20260509141546 16 134 3.2 9.7 0.00 0.00 0.00 86 1012.5
20260509140043 16 159 1.6 11.3 0.00 0.00 0.00 88 1012.7
20260509134540 16 185 0.0 6.4 0.00 0.00 0.00 88 1013.0
20260509133040 15 223 1.6 3.2 0.00 0.00 0.00 89 1012.8
20260509131547 15 0 0.0 1.6 0.00 0.00 0.00 89 1013.1
20260509130053 14 127 0.0 1.6 0.00 0.00 0.00 91 1013.1
20260509124553 13 0 0.0 3.2 0.00 0.00 0.00 92 1013.4
20260509123050 12 0 0.0 3.2 0.00 0.00 0.00 92 1013.4
20260509121556 12 245 0.0 3.2 0.00 0.00 0.00 93 1013.3
20260509120049 12 219 0.0 3.2 0.00 0.00 0.00 94 1012.8
20260509114559 11 0 0.0 0.0 0.00 0.00 0.00 94 1013.0
20260509113044 10 0 0.0 0.0 0.00 0.00 0.00 94 1013.1
20260509111542 10 0 0.0 0.0 0.00 0.00 0.00 94 1013.2
20260509110041 9 0 0.0 0.0 0.00 0.00 0.00 94 1012.9
20260509104547 9 0 0.0 0.0 0.00 0.00 0.00 94 1013.1
20260509103039 8 0 0.0 0.0 0.00 0.00 0.00 93 1012.8
20260509101548 8 0 0.0 0.0 0.00 0.00 0.00 93 1012.5
20260509100046 8 0 0.0 0.0 0.00 0.00 0.00 93 1012.4
20260509094548 8 0 0.0 0.0 0.00 0.00 0.00 92 1012.3
20260509093043 9 0 0.0 0.0 0.00 0.00 0.00 92 1012.3
20260509091542 9 0 0.0 0.0 0.00 0.00 0.00 93 1012.4
20260509090056 9 0 0.0 0.0 0.00 0.00 0.00 92 1012.4
20260509084547 9 0 0.0 0.0 0.00 0.00 0.00 93 1012.3
20260509083050 9 0 0.0 0.0 0.00 0.00 0.00 92 1012.4
20260509081541 9 0 0.0 0.0 0.00 0.00 0.00 92 1012.2
20260509080104 10 0 0.0 0.0 0.00 0.00 0.00 92 1012.5
20260509074544 10 0 0.0 0.0 0.00 0.00 0.00 91 1012.8
20260509073043 10 0 0.0 0.0 0.00 0.00 0.00 91 1012.9
20260509071551 10 0 0.0 0.0 0.00 0.00 0.00 91 1013.2
20260509070046 10 0 0.0 0.0 0.00 0.00 0.00 90 1013.2
20260509064548 10 0 0.0 0.0 0.00 0.00 0.00 90 1013.3
20260509063100 11 0 0.0 0.0 0.00 0.00 0.00 90 1013.5
20260509061544 11 0 0.0 0.0 0.00 0.00 0.00 89 1013.7
20260509060044 11 0 0.0 0.0 0.00 0.00 0.00 88 1013.8
20260509054553 11 0 0.0 0.0 0.00 0.00 0.00 88 1014.1
20260509053050 11 0 0.0 0.0 0.00 0.00 0.00 87 1014.4
20260509051603 12 0 0.0 0.0 0.00 0.00 0.00 86 1014.4
20260509050059 12 0 0.0 0.0 0.00 0.00 0.00 87 1014.5
20260509044542 12 0 0.0 0.0 0.00 0.00 0.00 86 1014.7
20260509043047 12 0 0.0 0.0 0.00 0.00 0.00 85 1014.9
20260509041551 12 0 0.0 0.0 0.00 0.00 0.00 85 1014.9
20260509040041 12 0 0.0 0.0 0.00 0.00 0.00 84 1014.7
20260509034558 13 0 0.0 0.0 0.00 0.00 0.00 83 1014.7
20260509033058 13 0 0.0 0.0 0.00 0.00 0.00 84 1014.7
20260509031545 13 0 0.0 0.0 0.00 0.00 0.00 83 1014.8
20260509030049 13 0 0.0 0.0 0.00 0.00 0.00 83 1014.8
20260509024557 13 0 0.0 0.0 0.00 0.00 0.00 81 1014.9
20260509023047 13 0 0.0 0.0 0.00 0.00 0.00 81 1015.3
20260509021548 13 0 0.0 0.0 0.00 0.00 0.00 80 1015.2
20260509020049 14 0 0.0 0.0 0.00 0.00 0.00 78 1015.0
20260509014550 14 0 0.0 0.0 0.00 0.00 0.00 76 1015.0
20260509013050 15 0 0.0 0.0 0.00 0.00 0.00 75 1014.9
20260509011601 15 0 0.0 0.0 0.00 0.00 0.00 71 1014.5
20260509010046 15 0 0.0 0.0 0.00 0.00 0.00 71 1014.5
20260509004555 16 0 0.0 0.0 0.00 0.00 0.00 68 1014.4
20260509003046 16 0 0.0 0.0 0.00 0.00 0.00 62 1014.4